Location: Hamburg
(53.5554°N, 9.9941°E)
Time: 04:13:33
(UTC+02:00)

ISS - Pass Details

Date: 17 May 2021
Orbit: 417 x 422 km, 51.6° (Epoch: 15 June)

Event Time Altitude Azimuth Distance (km) Brightness Sun altitude
Rises 00:26:56 0° 260° (W) 2,367 0.1 -16.3°
Reaches altitude 10° 00:29:02 10° 258° (WSW) 1,504 -1.0 -16.4°
Maximum altitude 00:32:22 63° 177° (S) 476 -3.8 -16.5°
Drops below altitude 10° 00:35:44 10° 95° (E) 1,508 -1.1 -16.6°
Sets 00:37:50 0° 92° (E) 2,374 -0.1 -16.6°
